Tracking 19638 objects as of 20-May-2019
HD Live streaming from Space Station
objects crossing your sky now

METEOR PRIRODA

Track METEOR PRIRODA now!
10-day predictions
METEOR PRIRODA is classified as:


NORAD ID: 12585
Int'l Code: 1981-065A
Perigee: 497.9 km
Apogee: 520.1 km
Inclination: 97.5 °
Period: 94.7 minutes
Semi major axis: 6879 km
RCS: 4.6163 m2 (large)
Launch date: July 10, 1981
Source: Commonwealth of Independent States (former USSR) (CIS)
Launch site: TYURATAM MISSILE AND SPACE COMPLEX (TTMTR)
aabbcc
Your satellite tracking list
Your tracking list is empty




NASA's NSSDC Master Catalog

Two Line Element Set (TLE):
1 12585U 81065A   19140.05296477  .00000435  00000-0  22552-4 0  9998
2 12585  97.5116 123.5016 0016079 105.1795 255.1220 15.21322023 68957
Source of the keplerian elements: AFSPC